This demonstration page uses our WeatherBlox Daily Observations layout. Learn more.

Left ArrowRight Arrow

Hourly Observations for June 5, 2021

Temp ( °F °C ) Dew Point ( °F °C ) Humidity (%) Winds ( mph kmh ) Pressure ( in mb ) Visibility ( mi km ) Precip ( " mm )
12:53 am 00:53 Clear 63 17.2 61 16.1 93 93 N N/A 30.02 1017 7 11 N/A
1:53 am 01:53 Clear with Mist and Fog 62 16.7 61 16.1 96 96 N N/A 30.03 1017 5 8 N/A
2:53 am 02:53 Clear with Mist and Fog 61 16.1 60 15.6 97 97 N N/A 30.03 1017 3 4 N/A
3:08 am 03:08 Clear 61 16.1 60 15.6 97 97 N N/A 30.04 1017 9 14 N/A
3:53 am 03:53 Clear with Mist and Fog 60 15.6 59 15 96 96 N N/A 30.04 1017 4 6 N/A
3:58 am 03:58 Clear with Mist and Fog 60 15.6 59 15 96 96 N N/A 30.05 1017 2 2 N/A
4:08 am 04:08 Clear with Mist and Fog 60 15.6 59 15 96 96 N N/A 30.05 1017 3 4 N/A
4:15 am 04:15 Clear with Mist and Fog 60 15.6 59 15 96 96 N N/A 30.05 1017 4 6 N/A
4:53 am 04:53 Clear with Mist and Fog 59 15 58 14.4 96 96 N N/A 30.04 1017 3 5 N/A
5:19 am 05:19 Clear with Mist and Fog 58 14.4 58 14.4 100 100 N N/A 30.06 1018 2 3 N/A
5:27 am 05:27 Clear with Mist and Fog 58 14.4 57 13.9 97 97 N N/A 30.06 1018 3 5 N/A
5:53 am 05:53 Clear with Mist and Fog 58 14.4 58 14.4 100 100 N N/A 30.05 1018 3 5 N/A
6:17 am 06:17 Sunny with Mist and Fog 57 13.9 57 13.9 100 100 N N/A 30.07 1018 2 3 N/A
6:32 am 06:32 Sunny with Mist and Fog 58 14.4 57 13.9 97 97 N N/A 30.07 1018 2 3 N/A
6:51 am 06:51 Sunny with Mist and Fog 57 14 57 14 100 100 N N/A 30.07 1018 3 5 N/A
6:53 am 06:53 Sunny with Mist and Fog 58 14.4 58 14.4 100 100 N N/A 30.06 1018 3 5 N/A
7:53 am 07:53 Sunny with Mist and Fog 65 18.3 62 16.7 90 90 N N/A 30.06 1018 6 10 N/A
8:53 am 08:53 Sunny 71 21.7 64 17.8 79 79 N N/A 30.06 1018 9 14 N/A
9:53 am 09:53 Sunny 77 25 64 17.8 64 64 N N/A 30.06 1018 10 16 N/A
10:53 am 10:53 Sunny 80 26.7 62 16.7 54 54 VRB 3 6 30.06 1018 10 16 N/A
11:53 am 11:53 Sunny 82 27.8 61 16.1 49 49 WNW 7 11 30.05 1018 10 16 N/A
12:53 pm 12:53 Partly Cloudy 81 27.2 60 15.6 49 49 SW 3 6 30.04 1017 10 16 N/A
1:53 pm 13:53 Mostly Sunny 84 28.9 61 16.1 46 46 VRB 6 9 30.02 1017 10 16 N/A
2:53 pm 14:53 Partly Cloudy 83 28.3 61 16.1 48 48 N N/A 30.00 1016 10 16 N/A
3:53 pm 15:53 Mostly Sunny 86 30 60 15.6 42 42 VRB 7 11 30.00 1016 10 16 N/A
4:53 pm 16:53 Mostly Sunny 86 30 60 15.6 42 42 VRB 5 7 29.99 1016 10 16 N/A
5:53 pm 17:53 Partly Cloudy 85 29.4 60 15.6 43 43 VRB 5 7 29.98 1015 10 16 N/A
6:53 pm 18:53 Sunny 84 28.9 60 15.6 44 44 VRB 5 7 29.98 1015 10 16 N/A
7:53 pm 19:53 Sunny 80 26.7 61 16.1 52 52 SW 3 6 29.98 1015 10 16 N/A
8:53 pm 20:53 Sunny 72 22.2 65 18.3 79 79 N N/A 29.98 1015 10 16 N/A
9:53 pm 21:53 Clear 68 20 63 17.2 84 84 N N/A 30.00 1016 10 16 N/A
10:53 pm 22:53 Clear 66 18.9 63 17.2 90 90 N N/A 30.01 1016 10 16 N/A
11:53 pm 23:53 Clear 65 18.3 62 16.7 90 90 N N/A 30.01 1016 10 16 N/A

Powered by AerisWeather